Tracking 19792 objects as of 16-Jul-2019
HD Live streaming from Space Station
objects crossing your sky now

HARBINGER

Track HARBINGER now!
10-day predictions


NORAD ID: 44229
Int'l Code: 2019-026E
Perigee: 506.4 km
Apogee: 516.5 km
Inclination: 40.0 °
Period: 94.7 minutes
Semi major axis: 6882 km
RCS: Unknown
Launch date: May 5, 2019
Source: United States (US)
Launch site: Rocket Lab Launch Complex (RLLC)
aabbcc
Your satellite tracking list
Your tracking list is empty




NASA's NSSDC Master Catalog

Two Line Element Set (TLE):
1 44229U 19026E   19197.19115174  .00000233  00000-0  18588-4 0  9997
2 44229  40.0203 174.4624 0007382  68.9223 291.2357 15.20510501 10943
Source of the keplerian elements: AFSPC